STARLINK-3192, 49767

Orbit data source: Space-Track

STARLINK-3192, 49767 is a payload satellite owned by SpaceX/Seattle (US) in LEO that was launched on Thu, 02 Dec 2021 UTC via an FALCON 9 launch vehicle from the Air Force Eastern Test Range (AFETR). Payload-class satellites include a variety of spacecraft equipped with specific instruments for various scientific and technological missions. These include communications satellites like Starlink; space stations such as the ISS; scientific satellites like the Hubble; Earth observation satellites from companies like Planet Labs, Umbra, and HawkEye 360; GPS; miniature CubeSats for education and research; and military/defense satellites.

Loading next visibility...
Identifier
49767, 2021-115AV
Orbit
LEO
Country
Flag of USUS
Related business
Manufacturer
SpaceX/Seattle
Mission
Operational Commercial Communications
Bus & Motor
STARLINK, Unknown motor
Mass
290 kg wet, ~270 kg dry
Launch date (UTC)
2021-12-02 (5 years ago)
Launch vehicle
FALCON 9
Launch site
Air Force Eastern Test Range (AFETR)
Object type
Payload
Rocket body
Debris
Shape & HBR
Box + 1 Pan, 10.1 m
Radar Cross Section
13.562 m², Large (>1 m²)

Expand to show TLE details & history
Last TLE update: 3 days ago

TLE from 3 days ago
0 STARLINK-3192
1 49767U 21115AV  26170.98751281  .00000940  00000-0  77165-4 0  9993
2 49767  53.1606  39.7737 0001598  93.7326 266.3848 15.08839470251128
Epoch: 2026-06-19T23:42Z
TLE epoch observation values (Epoch: 2026-06-19T23:42:01.106Z)
Latitude
-0.00005°
Longitude
136.06045°
Altitude
540.706 km
Speed
7.593 km/s
True Right ascension
02h 39m 05s
True Declination
0° 00' 00"
Sunlit
Object was in daylight at epoch
Visualization orbit readout
Latitude
Unknown
Longitude
Unknown
Altitude
Unknown
Speed
Unknown
Apparent Right ascension
Unknown
Apparent Declination
Unknown
Sunlit
N/A
Visualization observer readout
Local Sidereal Time
23:08:18
Azimuth
Unknown
Elevation
Unknown
Doppler factor
Unknown
Orbital elements
Apogee altitude
541.105 km
Perigee altitude
538.894 km
Semi-major axis
6,918.136 km
Eccentricity
0.00016
Inclination
53.1606°
RAAN
39.7737°
Arg. of periapsis
93.7326°
True anomaly
266.36652°
Mean anomaly
266.3848°
Eccentric anomaly
266.37566°
Mean motion
3.77189 °/min
Orbital period
95.44 mins
BSTAR
0.000077165
Loading maneuver chart data...
Computing Atmospheric mass density...

Documentation

Showing up to 5 results
|